Total_Precipitation_Accumulation
0.02 0.08 0.23 0.45 0.70 1.14 1.35 0.91 0.69 0.64 0.54 0.50 0.44 0.37 0.41 0.50 0.57 0.92 0.59 0.28 0.13 0.10 0.12 0.20 0.25 0.18 0.16 0.18 0.23 0.26 0.25 0.23 0.22 0.23 0.26 0.32 0.42 0.51 0.49 0.51 0.61 0.66 0.60 0.54 0.56 0.50 0.46 0.46 0.39
0.02 0.10 0.26 0.53 0.99 1.57 1.32 0.70 0.57 0.60 0.48 0.50 0.50 0.45 0.47 0.50 0.41 0.34 0.37 0.28 0.14 0.10 0.13 0.15 0.21 0.21 0.19 0.18 0.22 0.25 0.26 0.25 0.25 0.28 0.28 0.31 0.36 0.41 0.42 0.49 0.57 0.63 0.59 0.53 0.42 0.38 0.35 0.33 0.26
0.06 0.14 0.26 0.50 0.95 1.35 1.01 0.58 0.44 0.45 0.44 0.54 0.66 0.57 0.58 0.58 0.48 0.42 0.39 0.26 0.18 0.15 0.12 0.20 0.26 0.27 0.24 0.19 0.22 0.25 0.28 0.29 0.29 0.29 0.29 0.30 0.32 0.37 0.37 0.42 0.49 0.48 0.42 0.37 0.33 0.33 0.29 0.26 0.21
0.07 0.19 0.32 0.45 0.60 0.56 0.56 0.55 0.42 0.50 0.61 0.58 0.65 0.77 0.67 0.51 0.48 0.53 0.53 0.39 0.25 0.21 0.18 0.23 0.30 0.30 0.29 0.25 0.24 0.28 0.31 0.32 0.30 0.30 0.29 0.30 0.33 0.35 0.35 0.35 0.40 0.39 0.37 0.33 0.34 0.35 0.32 0.26 0.22
0.08 0.20 0.33 0.41 0.47 0.40 0.43 0.49 0.45 0.51 0.56 0.57 0.61 0.89 0.87 0.66 0.56 0.56 0.52 0.50 0.35 0.41 0.35 0.34 0.40 0.39 0.36 0.29 0.27 0.27 0.29 0.34 0.33 0.31 0.30 0.29 0.31 0.34 0.33 0.33 0.32 0.32 0.34 0.34 0.35 0.36 0.30 0.33 0.33
0.08 0.17 0.32 0.33 0.35 0.32 0.38 0.45 0.45 0.51 0.56 0.66 0.77 1.04 1.03 0.83 0.81 0.78 0.78 0.68 0.48 0.55 0.53 0.47 0.49 0.48 0.47 0.38 0.34 0.35 0.34 0.33 0.34 0.33 0.29 0.28 0.28 0.31 0.32 0.32 0.29 0.25 0.25 0.29 0.34 0.39 0.35 0.35 0.39
0.05 0.11 0.21 0.22 0.21 0.28 0.32 0.31 0.39 0.58 0.79 0.87 0.98 1.19 1.11 1.23 1.20 1.10 1.11 0.98 0.74 0.68 0.65 0.58 0.55 0.50 0.54 0.50 0.43 0.43 0.42 0.40 0.39 0.36 0.31 0.28 0.27 0.29 0.30 0.30 0.29 0.26 0.26 0.28 0.31 0.35 0.34 0.32 0.36
0.03 0.07 0.12 0.17 0.17 0.24 0.26 0.26 0.30 0.45 0.81 0.88 0.92 1.05 1.31 1.22 1.26 1.53 1.49 1.41 1.16 1.03 0.82 0.69 0.69 0.68 0.66 0.63 0.54 0.52 0.46 0.46 0.46 0.41 0.38 0.37 0.37 0.34 0.37 0.35 0.34 0.35 0.35 0.32 0.31 0.35 0.34 0.36 0.34
0.03 0.08 0.10 0.11 0.14 0.17 0.19 0.24 0.28 0.40 0.57 0.78 0.96 0.90 1.02 0.97 1.13 1.52 1.72 1.86 1.74 1.38 1.14 0.93 0.83 0.82 0.78 0.71 0.65 0.69 0.66 0.62 0.60 0.58 0.55 0.51 0.50 0.52 0.55 0.50 0.56 0.56 0.56 0.57 0.56 0.58 0.55 0.53 0.43
0.03 0.06 0.07 0.07 0.10 0.13 0.13 0.16 0.20 0.41 0.84 1.18 1.27 1.03 1.02 1.12 1.48 1.78 1.83 1.84 1.91 1.52 1.23 1.14 1.05 0.92 0.86 0.75 0.81 1.00 0.91 0.83 0.82 0.88 0.81 0.80 0.87 0.83 0.64 0.72 0.93 1.07 1.13 1.09 1.16 1.27 1.02 0.81 0.82
0.02 0.03 0.05 0.07 0.07 0.07 0.07 0.12 0.19 0.36 0.83 1.15 1.29 1.22 1.32 1.38 1.72 2.05 2.15 1.94 1.93 1.79 1.47 1.37 1.27 1.17 1.17 1.24 1.11 1.14 1.12 1.14 1.10 1.14 1.17 1.17 1.04 0.92 0.88 1.03 1.28 1.48 1.54 1.50 1.79 1.81 1.32 1.38 1.71
0.01 0.01 0.03 0.05 0.07 0.05 0.06 0.11 0.27 0.43 0.66 0.93 1.02 1.50 1.71 1.64 1.94 2.10 2.20 2.27 2.22 2.14 1.82 1.63 1.54 1.53 1.54 1.49 1.42 1.31 1.32 1.32 1.36 1.44 1.43 1.52 1.58 1.48 1.47 1.53 1.59 1.77 1.90 2.13 2.22 2.33 2.03 2.01 1.89
0.01 0.01 0.02 0.04 0.06 0.07 0.09 0.15 0.22 0.48 0.63 0.82 1.03 1.42 1.64 1.58 1.94 2.20 2.50 2.58 2.58 2.34 2.03 1.98 1.77 1.67 1.70 1.78 1.83 1.66 1.73 1.68 1.65 1.76 1.83 1.89 2.07 2.05 2.02 1.90 1.90 1.84 2.03 2.24 2.55 2.48 2.73 2.67 2.37
0.01 0.03 0.03 0.04 0.06 0.11 0.25 0.34 0.32 0.59 0.67 0.84 1.08 1.48 1.57 1.54 1.76 1.76 2.13 2.46 2.56 2.30 2.12 2.08 1.95 2.00 2.09 2.06 2.08 2.14 2.16 2.13 2.07 2.03 2.07 2.12 2.31 2.51 2.43 2.22 2.20 2.08 2.14 2.45 2.70 2.74 3.14 2.98 2.82
0.02 0.06 0.08 0.09 0.13 0.20 0.30 0.50 0.53 0.67 0.72 0.98 1.05 1.25 1.40 1.39 1.50 1.64 1.91 2.19 2.29 2.09 2.17 2.32 2.44 2.62 2.73 2.71 2.64 2.56 2.61 2.52 2.51 2.63 2.63 2.66 2.63 2.66 2.53 2.39 2.29 2.40 2.53 2.68 2.72 2.84 3.17 2.93 2.84
0.04 0.13 0.21 0.21 0.21 0.27 0.45 0.89 0.83 0.87 0.84 0.91 0.97 1.13 1.25 1.27 1.41 1.69 1.84 2.03 2.22 2.13 2.21 2.45 2.56 2.91 3.10 3.12 3.17 3.11 3.05 2.91 2.97 2.97 2.96 2.94 2.84 2.73 2.78 2.54 2.34 2.56 2.68 2.85 3.01 2.97 3.04 3.08 3.06
0.07 0.14 0.22 0.27 0.19 0.21 0.38 0.72 0.68 0.77 0.95 0.90 0.93 0.99 1.06 1.11 1.21 1.41 1.65 1.85 2.15 2.46 2.66 2.98 3.08 3.02 3.11 3.29 3.41 3.22 3.13 3.01 2.93 2.84 2.84 2.74 2.65 2.64 2.91 2.71 2.67 2.77 2.96 2.87 2.67 3.03 3.15 3.11 3.11
0.06 0.13 0.18 0.23 0.22 0.20 0.33 0.52 0.61 0.70 0.86 0.96 0.96 1.05 1.13 1.24 1.46 1.68 1.97 2.13 2.32 2.74 3.04 3.18 3.27 3.48 3.76 3.94 3.83 3.58 3.20 2.92 2.80 2.69 2.57 2.52 2.57 2.60 2.86 2.65 2.67 2.85 3.07 3.12 3.10 3.21 3.16 3.03 3.10
0.05 0.12 0.15 0.19 0.24 0.25 0.36 0.43 0.69 0.90 1.02 1.14 1.29 1.50 1.65 1.84 1.96 2.13 2.42 2.61 2.66 2.71 2.89 3.11 3.50 3.88 3.99 3.86 3.79 3.70 3.36 3.06 2.74 2.45 2.41 2.50 2.44 2.51 2.78 2.52 2.80 2.93 3.00 3.12 3.15 3.28 3.17 2.99 3.15
0.06 0.12 0.17 0.21 0.26 0.26 0.41 0.51 0.74 1.11 1.23 1.20 1.25 1.30 1.35 1.70 1.95 2.18 2.42 2.51 2.45 2.55 2.80 3.14 3.45 3.80 3.77 3.88 4.04 3.94 3.68 3.10 2.75 2.56 2.44 2.43 2.43 2.42 2.53 2.83 2.85 2.94 3.03 3.04 2.99 3.01 2.83 2.63 2.97
0.08 0.11 0.16 0.21 0.32 0.29 0.40 0.74 0.94 1.21 1.33 1.23 1.21 1.22 1.18 1.34 1.61 1.77 1.92 2.06 2.30 2.65 3.04 3.25 3.47 3.59 3.65 3.80 3.89 3.57 3.35 2.90 2.74 2.71 2.53 2.42 2.49 2.52 2.62 2.79 2.87 2.80 2.72 2.77 2.86 2.77 2.65 2.47 2.59
0.10 0.09 0.09 0.15 0.27 0.41 0.50 1.04 1.33 1.51 1.37 1.13 1.18 1.23 1.33 1.43 1.47 1.56 1.67 1.96 2.30 2.65 3.09 3.47 3.47 3.45 3.39 3.52 3.61 3.39 3.04 2.75 2.61 2.59 2.38 2.24 2.20 2.25 2.36 2.43 2.58 2.64 2.60 2.60 2.54 2.51 2.53 2.48 2.36
0.07 0.07 0.08 0.14 0.22 0.39 0.56 0.95 1.37 1.44 1.32 1.08 1.02 1.20 1.42 1.37 1.36 1.46 1.55 1.80 2.01 2.33 2.67 3.04 3.30 3.33 3.20 3.16 3.19 3.21 2.98 2.65 2.45 2.36 2.23 2.17 2.17 2.04 2.04 2.14 2.32 2.35 2.26 2.25 2.38 2.57 2.54 2.39 2.26
0.06 0.07 0.12 0.22 0.40 0.69 0.55 0.70 1.11 1.32 1.19 0.96 0.96 1.11 1.25 1.41 1.41 1.48 1.69 1.85 1.94 2.14 2.42 2.63 2.82 2.88 2.82 2.74 2.74 2.79 2.72 2.60 2.37 2.18 2.18 2.19 2.10 1.93 1.87 1.89 1.99 2.03 2.03 2.00 2.04 2.17 2.23 2.21 2.31
0.07 0.15 0.46 0.78 1.08 0.95 0.61 0.72 1.07 1.00 0.84 0.75 0.82 1.05 1.29 1.51 1.49 1.56 1.72 1.82 1.90 1.96 2.05 2.14 2.20 2.30 2.26 2.22 2.19 2.19 2.19 2.19 2.07 2.00 2.05 2.07 1.99 1.84 1.79 1.72 1.67 1.66 1.69 1.77 1.96 1.99 1.99 2.08 2.20
0.10 0.19 0.53 0.71 0.84 0.82 0.77 1.00 1.07 0.83 0.71 0.71 0.76 0.93 1.18 1.33 1.36 1.43 1.49 1.43 1.40 1.44 1.50 1.59 1.61 1.67 1.65 1.70 1.80 1.79 1.88 1.87 1.81 1.89 1.89 1.92 1.88 1.79 1.67 1.53 1.45 1.41 1.42 1.52 1.72 1.91 1.91 2.00 2.07
0.20 0.24 0.26 0.43 0.50 0.80 0.98 1.12 1.04 0.76 0.86 0.85 0.91 0.97 1.02 1.05 1.05 1.03 1.03 1.08 1.14 1.16 1.17 1.19 1.24 1.28 1.23 1.26 1.40 1.48 1.52 1.55 1.57 1.66 1.69 1.62 1.59 1.48 1.44 1.39 1.37 1.31 1.33 1.37 1.43 1.58 1.59 1.68 1.74
0.21 0.33 0.45 0.65 0.83 0.94 0.98 1.25 1.40 1.25 1.17 1.06 1.16 1.38 1.20 0.94 0.88 0.88 0.83 0.85 0.87 0.89 0.98 1.06 1.14 1.25 1.21 1.14 1.17 1.17 1.20 1.23 1.36 1.41 1.40 1.41 1.45 1.41 1.31 1.30 1.29 1.24 1.21 1.23 1.28 1.32 1.37 1.37 1.40
0.32 0.40 0.50 0.63 0.72 0.90 1.05 1.18 1.06 1.18 1.14 1.12 1.16 1.22 1.05 0.74 0.63 0.66 0.62 0.63 0.67 0.76 0.88 0.93 1.08 1.17 1.10 0.99 0.99 1.04 1.01 1.03 1.10 1.18 1.18 1.24 1.31 1.37 1.33 1.26 1.22 1.12 1.05 1.04 1.07 1.08 1.18 1.19 1.17
0.27 0.41 0.51 0.67 0.75 0.80 0.93 1.03 0.67 0.80 0.82 0.83 0.91 0.80 0.69 0.56 0.46 0.57 0.57 0.52 0.55 0.59 0.66 0.75 0.87 0.99 0.97 0.93 0.94 0.99 1.03 1.00 0.98 1.03 1.03 1.04 1.09 1.08 1.05 1.04 1.11 1.12 1.09 1.08 1.06 1.03 1.01 1.06 1.08